Location: Unspecified
(48.5670°N, 0.0000°E)
Time: 11:15:13
(UTC+00:00)

Tiros 1 - Pass Details

Date: 30 October 2020
Orbit: 630 x 664 km, 48.4° (Epoch: 03 December)

Event Time Altitude Azimuth Distance (km) Brightness Sun altitude
Exits shadow 03:24:14 25° 95° (E) 1,279 9.1 -33.2°
Drops below altitude 10° 03:26:19 10° 82° (E) 2,009 10.5 -32.9°
Sets 03:28:42 0° 76° (ENE) 2,919 11.6 -32.5°
